Location: Unspecified
(42.9300°N, 71.1866°W)
Time: 03:04:54
(UTC-04:00)

GENESIS II - Visible Passes

Search period start: 19 April 2014 00:00
Search period end: 29 April 2014 00:00
Orbit: 526 x 547 km, 64.5° (Epoch: 17 April)

Date Brightness Start Highest point End Pass type
(mag) Time Alt. Az. Time Alt. Az. Time Alt. Az.
19 Apr 7.5 03:26:29 10° N 03:28:48 15° NE 03:31:06 10° ENE visible
19 Apr 4.2 05:03:25 10° NW 05:07:27 79° WSW 05:11:25 10° SSE visible
19 Apr 5.0 20:35:48 10° SW 20:39:49 57° NW 20:43:50 10° NNE visible
19 Apr 7.9 22:18:31 10° NW 22:18:49 10° NNW 22:19:07 10° NNW visible
20 Apr 7.3 03:17:10 10° N 03:19:47 17° NE 03:22:23 10° E visible
20 Apr 4.2 04:54:20 10° NW 04:58:20 65° WSW 05:02:16 10° SSE visible
20 Apr 5.4 20:26:46 10° SW 20:30:43 48° NW 20:34:41 10° NNE visible
21 Apr 7.1 03:07:51 10° N 03:10:45 19° NE 03:13:37 10° E visible
21 Apr 4.3 04:45:15 10° NW 04:49:11 54° WSW 04:53:04 10° SSE visible
21 Apr 5.8 20:17:45 10° WSW 20:21:37 41° NW 20:25:30 10° NNE visible
22 Apr 6.9 02:58:34 10° N 03:01:42 21° NE 03:04:47 10° E visible
22 Apr 4.5 04:36:11 10° NW 04:40:01 44° WSW 04:43:49 10° S visible
22 Apr 6.2 20:08:45 10° WSW 20:12:31 35° NW 20:16:17 10° NNE visible
23 Apr 6.6 02:49:18 10° N 02:52:37 24° NE 02:55:54 10° E visible
23 Apr 4.7 04:27:08 10° NW 04:30:51 37° WSW 04:34:31 10° S visible
24 Apr 6.3 02:40:02 10° NNW 02:43:31 27° NE 02:46:58 10° ESE visible
24 Apr 5.0 04:18:05 10° NW 04:21:38 31° WSW 04:23:41 19° SSW visible
25 Apr 6.0 02:30:46 10° NNW 02:34:24 31° NE 02:35:02 30° ENE visible
25 Apr 6.1 04:09:04 10° WNW 04:10:17 17° WNW 04:10:17 17° WNW visible
26 Apr 6.0 02:21:31 10° NNW 02:24:21 32° NNE 02:24:21 32° NNE visible
27 Apr 6.3 02:12:15 10° NNW 02:14:18 26° N 02:14:18 26° N visible
28 Apr 6.5 02:03:00 10° NNW 02:04:32 22° NNW 02:04:32 22° NNW visible
